GW2028 Weather Reports


time (UTC)temp
F
wind
direction
speed
knots
gust
knots
rain 1hr
in
rain 24hr
in
rain mn
in
humidity
%
barometer
mb
20260503233503 60 292 4.3 11.3 0.00 0.00 0.00 43 1015.8
20260503233003 60 224 4.3 11.3 0.00 0.00 0.00 42 1015.8
20260503232503 60 203 4.3 14.8 0.00 0.00 0.00 42 1015.8
20260503232003 60 193 7.0 14.8 0.00 0.00 0.00 42 1015.8
20260503231503 60 190 5.2 13.9 0.00 0.00 0.00 41 1015.8
20260503231003 61 202 3.5 13.9 0.00 0.00 0.00 41 1015.8
20260503230503 61 228 4.3 13.9 0.00 0.00 0.00 41 1015.8
20260503230003 61 245 4.3 9.6 0.00 0.00 0.00 41 1015.8
20260503225503 61 242 3.5 7.0 0.00 0.00 0.00 41 1015.8
20260503225003 61 228 3.5 12.2 0.00 0.00 0.00 41 1015.8
20260503224503 61 212 4.3 12.2 0.00 0.00 0.00 44 1015.9
20260503224003 61 210 5.2 15.6 0.00 0.00 0.00 42 1016.0
20260503223503 61 216 4.3 15.6 0.00 0.00 0.00 42 1016.0
20260503223003 61 216 4.3 14.8 0.00 0.00 0.00 41 1016.1
20260503222503 60 218 4.3 13.0 0.00 0.00 0.00 43 1016.1
20260503222003 60 228 3.5 9.6 0.00 0.00 0.00 43 1016.1
20260503221503 60 226 4.3 14.8 0.00 0.00 0.00 42 1016.1
20260503221003 60 229 4.3 14.8 0.00 0.00 0.00 42 1016.1
20260503220503 60 230 4.3 9.6 0.00 0.00 0.00 45 1016.2
20260503220003 60 231 4.3 10.4 0.00 0.00 0.00 43 1016.1
20260503215503 60 231 4.3 10.4 0.00 0.00 0.00 42 1016.1
20260503215003 60 216 4.3 10.4 0.00 0.00 0.00 43 1016.2
20260503214503 61 207 3.5 13.0 0.00 0.00 0.00 41 1016.1
20260503214003 61 210 2.6 13.0 0.00 0.00 0.00 41 1016.2
20260503213503 61 210 3.5 11.3 0.00 0.00 0.00 43 1016.1
20260503213003 62 218 3.5 11.3 0.00 0.00 0.00 43 1016.1
20260503212503 62 230 4.3 19.1 0.00 0.00 0.00 42 1016.0
20260503212003 61 223 4.3 19.1 0.00 0.00 0.00 42 1016.1
20260503211503 62 215 3.5 13.0 0.00 0.00 0.00 41 1016.1
20260503211003 61 216 3.5 13.0 0.00 0.00 0.00 43 1016.1
20260503210503 61 219 4.3 13.9 0.00 0.00 0.00 42 1016.1
20260503210003 61 213 6.1 13.9 0.00 0.00 0.00 40 1016.1
20260503205718 61 213 5.2 13.9 0.00 0.00 0.00 39 1016.0
20260503205003 62 222 3.5 13.0 0.00 0.00 0.00 42 1016.0
20260503204503 62 220 4.3 13.0 0.00 0.00 0.00 40 1016.2
20260503204217 62 211 5.2 19.1 0.00 0.00 0.00 43 1016.1
20260503203503 62 219 5.2 19.1 0.00 0.00 0.00 40 1016.2
20260503203217 62 228 4.3 18.2 0.00 0.00 0.00 40 1016.2
20260503202503 62 210 4.3 15.6 0.00 0.00 0.00 43 1016.2
20260503202003 62 198 4.3 15.6 0.00 0.00 0.00 40 1016.2
20260503201718 62 198 4.3 15.6 0.00 0.00 0.00 40 1016.3
20260503201003 62 226 5.2 12.2 0.00 0.00 0.00 45 1016.4
20260503200503 62 246 4.3 10.4 0.00 0.00 0.00 43 1016.5
20260503200003 62 239 4.3 9.6 0.00 0.00 0.00 45 1016.8
20260503195503 62 231 3.5 9.6 0.00 0.00 0.00 42 1016.6
20260503195003 62 219 3.5 9.6 0.00 0.00 0.00 44 1016.7
20260503194503 62 222 3.5 9.6 0.00 0.00 0.00 44 1016.8
20260503194003 61 228 2.6 7.0 0.00 0.00 0.00 47 1017.0
20260503193503 61 243 3.5 8.7 0.00 0.00 0.00 49 1017.0
20260503193003 61 260 3.5 8.7 0.00 0.00 0.00 46 1017.1
20260503192503 61 262 3.5 8.7 0.00 0.00 0.00 52 1017.1
20260503192216 61 263 2.6 8.7 0.00 0.00 0.00 51 1017.2
20260503191503 61 266 4.3 9.6 0.00 0.00 0.00 48 1017.3
20260503191003 62 267 4.3 9.6 0.00 0.00 0.00 45 1017.4
20260503190503 62 264 3.5 9.6 0.00 0.00 0.00 44 1017.5
20260503190216 63 260 4.3 9.6 0.00 0.00 0.00 45 1017.5
20260503185717 62 259 3.5 9.6 0.00 0.00 0.00 50 1017.6
20260503185003 62 271 4.3 10.4 0.00 0.00 0.00 47 1017.7
20260503184503 62 272 5.2 13.0 0.00 0.00 0.00 43 1017.7
20260503184003 62 266 4.3 13.0 0.00 0.00 0.00 43 1017.8
20260503183503 63 260 3.5 7.0 0.00 0.00 0.00 49 1017.7
20260503183003 63 264 4.3 8.7 0.00 0.00 0.00 44 1017.8
20260503182503 63 249 4.3 8.7 0.00 0.00 0.00 47 1017.8
20260503182003 62 237 4.3 10.4 0.00 0.00 0.00 46 1017.9
20260503181504 63 250 4.3 10.4 0.00 0.00 0.00 44 1018.0
20260503181003 62 253 4.3 10.4 0.00 0.00 0.00 46 1018.0
20260503180503 62 247 4.3 10.4 0.00 0.00 0.00 44 1018.0
20260503180003 62 248 4.3 8.7 0.00 0.00 0.00 43 1018.1
20260503175503 62 230 4.3 14.8 0.00 0.00 0.00 47 1018.2
20260503175003 62 240 5.2 14.8 0.00 0.00 0.00 46 1018.2
20260503174503 62 258 3.5 9.6 0.00 0.00 0.00 46 1018.3
20260503174003 62 241 3.5 8.7 0.00 0.00 0.00 46 1018.3
20260503173503 61 243 4.3 8.7 0.00 0.00 0.00 44 1018.4
20260503173003 61 248 4.3 7.8 0.00 0.00 0.00 47 1018.4
20260503172503 61 247 4.3 7.8 0.00 0.00 0.00 50 1018.6
20260503172003 61 255 5.2 8.7 0.00 0.00 0.00 46 1018.6
20260503171503 61 246 4.3 10.4 0.00 0.00 0.00 45 1018.8
20260503171003 61 239 4.3 10.4 0.00 0.00 0.00 46 1018.7
20260503170716 61 238 4.3 10.4 0.00 0.00 0.00 45 1018.7
20260503170218 60 243 4.3 9.6 0.00 0.00 0.00 44 1018.8
20260503151003 56 202 4.3 11.3 0.00 0.00 0.00 47 1019.7
20260503150718 56 198 5.2 11.3 0.00 0.00 0.00 46 1019.6
20260503150217 56 202 4.3 11.3 0.00 0.00 0.00 45 1019.6
20260503131003 49 188 2.6 7.8 0.00 0.00 0.00 50 1020.3
20260503130503 48 185 2.6 7.8 0.00 0.00 0.00 53 1020.4
20260503130218 48 184 2.6 7.0 0.00 0.00 0.00 52 1020.4
20260503110503 39 191 2.6 6.1 0.00 0.00 0.00 75 1020.1
20260503090503 38 192 1.7 5.2 0.00 0.01 0.00 79 1020.0
20260503081503 38 192 1.7 4.3 0.00 0.01 0.00 79 1020.1
20260503081003 38 193 2.6 6.1 0.00 0.01 0.00 79 1020.0
20260503080503 38 194 2.6 6.1 0.00 0.01 0.00 79 1020.0
20260503072503 39 195 2.6 5.2 0.00 0.02 0.00 80 1020.1
20260503072003 39 196 2.6 6.1 0.00 0.03 0.00 80 1020.1
20260503071717 39 196 2.6 6.1 0.00 0.03 0.00 80 1020.1
20260503071003 39 195 2.6 5.2 0.00 0.03 0.00 80 1020.0
20260503070503 39 195 2.6 4.3 0.00 0.03 0.00 80 1020.1
20260503055003 38 259 1.7 2.6 0.00 0.03 0.00 81 1020.5
20260503054503 38 259 1.7 2.6 0.00 0.04 0.00 80 1020.5
20260503054003 38 259 0.9 2.6 0.00 0.04 0.00 80 1020.5
20260503053716 38 259 0.9 2.6 0.00 0.04 0.00 80 1020.5
20260503053003 38 259 0.9 2.6 0.00 0.05 0.00 80 1020.5
20260503052503 38 259 0.9 1.7 0.00 0.05 0.00 80 1020.5
20260503052217 38 259 0.9 1.7 0.00 0.05 0.00 80 1020.5
20260503051503 38 259 0.9 1.7 0.00 0.05 0.00 80 1020.6
20260503051217 38 259 0.9 1.7 0.00 0.06 0.00 80 1020.6
20260503050718 38 259 0.9 1.7 0.00 0.06 0.00 80 1020.7
20260503050003 38 259 0.9 3.5 0.00 0.06 0.00 80 1020.7
20260503045503 38 259 0.9 3.5 0.00 0.06 0.00 80 1020.7
20260503045003 39 259 0.9 1.7 0.00 0.06 0.00 79 1020.7
20260503044503 39 259 0.9 2.6 0.00 0.06 0.00 79 1020.7
20260503044003 39 259 0.9 2.6 0.00 0.06 0.00 79 1020.7
20260503043718 39 259 0.0 1.7 0.00 0.06 0.00 79 1020.7
20260503043003 40 0 0.0 0.0 0.00 0.06 0.00 77 1020.7
20260503042718 40 0 0.0 0.0 0.00 0.07 0.00 77 1020.7
20260503042003 40 0 0.0 0.0 0.00 0.07 0.00 76 1020.7
20260503041718 40 259 0.0 0.9 0.00 0.07 0.00 76 1020.7
20260503041003 40 259 0.9 2.6 0.00 0.07 0.00 75 1020.7
20260503040503 41 259 0.9 2.6 0.00 0.07 0.00 74 1020.8
20260503040004 41 259 1.7 2.6 0.00 0.07 0.00 74 1020.8
20260503035503 41 259 1.7 2.6 0.00 0.07 0.07 74 1020.9
20260503035003 41 259 1.7 3.5 0.00 0.07 0.07 74 1020.8
20260503034503 41 259 1.7 3.5 0.00 0.08 0.07 74 1020.8
20260503034003 42 259 1.7 3.5 0.00 0.08 0.07 74 1020.8
20260503033503 42 259 1.7 3.5 0.00 0.08 0.07 74 1020.9
20260503033003 42 260 0.9 3.5 0.00 0.08 0.07 74 1020.9
20260503032503 42 0 0.0 0.0 0.00 0.08 0.07 74 1020.9
20260503032003 42 0 0.0 0.0 0.00 0.08 0.07 73 1020.9
20260503031503 42 0 0.0 0.0 0.00 0.08 0.07 73 1021.0
20260503031003 42 0 0.0 0.0 0.00 0.08 0.07 73 1020.9
20260503030717 42 0 0.0 0.0 0.00 0.08 0.07 73 1021.0
20260503030216 42 0 0.0 0.0 0.00 0.08 0.07 73 1021.0
20260503025717 42 0 0.0 0.0 0.00 0.08 0.07 72 1021.0
20260503025003 42 0 0.0 0.0 0.00 0.08 0.07 72 1021.0
20260503024503 42 0 0.0 0.0 0.00 0.08 0.07 72 1021.1
20260503024003 42 0 0.0 0.0 0.00 0.08 0.07 72 1021.2
20260503023503 42 0 0.0 0.0 0.00 0.08 0.07 72 1021.2
20260503023003 42 0 0.0 0.0 0.00 0.08 0.07 72 1021.3
20260503022503 42 0 0.0 0.0 0.00 0.08 0.07 71 1021.3
20260503022003 43 0 0.0 0.0 0.00 0.08 0.07 71 1021.3
20260503021503 43 264 0.0 1.7 0.00 0.08 0.07 70 1021.2
20260503021218 43 264 0.0 1.7 0.00 0.08 0.07 70 1021.2
20260503020717 43 264 0.9 1.7 0.00 0.08 0.07 70 1021.2
20260503020003 43 264 0.9 1.7 0.00 0.08 0.07 69 1021.3
20260503015503 43 264 0.9 2.6 0.00 0.08 0.07 68 1021.3
20260503015003 43 264 0.9 2.6 0.00 0.08 0.07 68 1021.3
20260503014503 43 264 0.9 2.6 0.00 0.08 0.07 68 1021.3
20260503014003 43 264 0.0 2.6 0.00 0.08 0.07 68 1021.3
20260503013503 43 0 0.0 0.0 0.00 0.08 0.07 68 1021.2
20260503013003 43 264 0.0 1.7 0.00 0.08 0.07 67 1021.3
20260503012503 43 264 0.0 1.7 0.00 0.08 0.07 67 1021.3
20260503012003 43 264 0.0 1.7 0.00 0.08 0.07 66 1021.3
20260503011716 43 0 0.0 0.0 0.00 0.08 0.07 66 1021.3
20260503011003 43 0 0.0 0.0 0.00 0.08 0.07 66 1021.3
20260503010503 43 264 0.0 1.7 0.00 0.08 0.07 66 1021.2
20260503010218 43 264 0.0 2.6 0.00 0.08 0.07 66 1021.2
20260503005716 43 264 0.0 2.6 0.00 0.08 0.07 66 1021.2
20260503005217 43 264 0.0 1.7 0.00 0.08 0.07 66 1021.2
20260503004503 43 264 0.9 1.7 0.00 0.08 0.07 66 1021.2
20260503004003 43 264 0.0 1.7 0.00 0.08 0.07 65 1021.1
20260503003503 43 264 0.0 1.7 0.00 0.08 0.07 66 1021.2
20260503003003 43 264 0.0 1.7 0.00 0.08 0.07 66 1021.2
20260503002716 43 264 0.0 1.7 0.00 0.08 0.07 66 1021.2
20260503002003 43 0 0.0 0.0 0.00 0.08 0.07 67 1021.1
20260503001503 43 0 0.0 0.0 0.00 0.08 0.07 67 1021.1
20260503001003 43 0 0.0 0.0 0.00 0.08 0.07 68 1021.1
20260503000503 43 264 0.0 0.9 0.00 0.08 0.07 68 1021.1
20260503000218 43 264 0.0 2.6 0.00 0.08 0.07 67 1021.1
20260502235503 43 264 0.0 2.6 0.00 0.08 0.07 68 1021.1
20260502235003 43 264 0.0 2.6 0.00 0.08 0.07 67 1021.0
20260502234503 43 264 0.9 2.6 0.00 0.08 0.07 67 1021.1
20260502234217 43 264 0.9 2.6 0.00 0.08 0.07 67 1021.0